VIR990 EGCC-KLAX

Flight info

Callsign VIR990
Flight time N/A
Altitude 32000
Route EKLAD UY53 WAL L10 PENIL M144 BAGSO DCT REVNU DCT PIKIL/M084F340 DCT 57N020W 57N030W 57N040W 56N050W DCT JANJO/N0483F340 DCT DENSO/N0484F360 DCT AGLOL DCT MERNU DCT XEXUL DCT BLUOX/N0479F380 DCT RAP J158 DDY J107 NORRA J100 LAS Q70 HAILO DCT KOPLE BOGET2
Aircraft A346/H-SDE2E3FGHIJ3J4J5M1RWXY/LB1D1

Departure

Time 2026-05-04 08:19
Airport Manchester Airport (EGCC)

Arrival

Time N/A
Airport Los Angeles International Airport (KLAX)
Time Latitude Longitude Altitude Speed Heading
2026-05-04 07:40 53.36512 -2.27877 241 ft 0 kts 45°
2026-05-04 08:05 53.36503 -2.27894 241 ft 2 kts 56°
2026-05-04 08:06 53.36496 -2.27916 241 ft 2 kts 71°
2026-05-04 08:06 53.36492 -2.27940 241 ft 2 kts 83°
2026-05-04 08:06 53.36491 -2.27966 241 ft 2 kts 96°
2026-05-04 08:06 53.36494 -2.27990 241 ft 2 kts 108°
2026-05-04 08:08 53.36524 -2.28058 241 ft 0 kts 137°
2026-05-04 08:11 53.36519 -2.28050 241 ft 2 kts 137°
2026-05-04 08:11 53.36433 -2.27940 241 ft 10 kts 149°
2026-05-04 08:11 53.36370 -2.27969 241 ft 11 kts 222°
2026-05-04 08:12 53.36306 -2.28052 241 ft 12 kts 200°
2026-05-04 08:12 53.36219 -2.28070 241 ft 12 kts 162°
2026-05-04 08:12 53.36145 -2.27977 241 ft 14 kts 135°
2026-05-04 08:12 53.36070 -2.27860 241 ft 15 kts 148°
2026-05-04 08:13 53.35968 -2.27833 241 ft 15 kts 184°
2026-05-04 08:13 53.35857 -2.27855 241 ft 16 kts 186°
2026-05-04 08:13 53.35740 -2.27877 241 ft 17 kts 186°
2026-05-04 08:13 53.35665 -2.27891 241 ft 6 kts 186°
2026-05-04 08:14 53.35614 -2.27899 241 ft 8 kts 185°
2026-05-04 08:14 53.35546 -2.27909 241 ft 11 kts 185°
2026-05-04 08:14 53.35463 -2.27925 241 ft 12 kts 196°
2026-05-04 08:16 53.34930 -2.28887 241 ft 18 kts 226°
2026-05-04 08:16 53.34865 -2.28998 241 ft 7 kts 226°
2026-05-04 08:16 53.34821 -2.29058 241 ft 9 kts 206°
2026-05-04 08:17 53.34751 -2.29068 241 ft 11 kts 168°
2026-05-04 08:17 53.34684 -2.29013 241 ft 11 kts 142°
2026-05-04 08:17 53.34670 -2.28961 241 ft 2 kts 59°
2026-05-04 08:17 53.34673 -2.28953 241 ft 1 kts 56°
2026-05-04 08:19 53.39504 -2.20861 1952 ft 194 kts 356°
2026-05-04 08:19 53.40721 -2.21710 2348 ft 198 kts 317°
2026-05-04 08:20 53.41535 -2.23561 2761 ft 201 kts 301°
2026-05-04 08:20 53.42180 -2.25639 3192 ft 202 kts 298°
2026-05-04 08:20 53.42803 -2.27777 3550 ft 209 kts 298°
2026-05-04 08:20 53.43466 -2.30023 3804 ft 222 kts 298°
2026-05-04 08:21 53.44187 -2.32428 4034 ft 238 kts 298°
2026-05-04 08:21 53.44953 -2.34957 4326 ft 254 kts 298°
2026-05-04 08:21 53.46678 -2.40697 4993 ft 265 kts 293°
2026-05-04 08:22 53.47004 -2.43720 4987 ft 267 kts 268°
2026-05-04 08:22 53.46718 -2.46826 5011 ft 268 kts 260°
2026-05-04 08:24 53.44264 -2.68318 5200 ft 276 kts 260°
2026-05-04 08:24 53.43919 -2.71442 5903 ft 275 kts 260°
2026-05-04 08:24 53.43570 -2.74588 6519 ft 278 kts 260°
2026-05-04 08:24 53.43214 -2.77779 7123 ft 282 kts 260°
2026-05-04 08:25 53.42925 -2.81035 7730 ft 283 kts 273°
2026-05-04 08:25 53.43346 -2.84223 8337 ft 282 kts 292°
2026-05-04 08:25 53.44091 -2.87210 8945 ft 283 kts 295°
2026-05-04 08:25 53.44859 -2.90259 9538 ft 286 kts 293°
2026-05-04 08:26 53.45588 -2.93370 10126 ft 288 kts 292°
2026-05-04 08:27 53.51093 -3.18784 12128 ft 375 kts 292°
2026-05-04 08:28 53.52018 -3.22897 12684 ft 379 kts 291°
2026-05-04 08:28 53.52937 -3.27005 13275 ft 381 kts 291°
2026-05-04 08:28 53.53866 -3.31175 13669 ft 385 kts 291°
2026-05-04 08:28 53.54799 -3.35380 13677 ft 384 kts 291°
2026-05-04 08:29 53.55728 -3.39577 13684 ft 384 kts 291°
2026-05-04 08:29 53.56652 -3.43763 13685 ft 384 kts 291°
2026-05-04 08:29 53.57582 -3.47981 13917 ft 391 kts 291°
2026-05-04 08:31 53.62180 -3.79411 17587 ft 411 kts 275°
2026-05-04 08:33 53.63526 -4.13831 20616 ft 434 kts 276°
2026-05-04 08:33 53.63722 -4.18897 21014 ft 437 kts 276°
2026-05-04 08:35 53.65063 -4.55434 23629 ft 458 kts 276°
2026-05-04 08:35 53.65248 -4.60759 23978 ft 461 kts 276°
2026-05-04 08:35 53.65435 -4.66181 24324 ft 464 kts 276°
2026-05-04 08:35 53.65617 -4.71589 24671 ft 466 kts 276°
2026-05-04 08:37 53.66700 -5.04798 26506 ft 484 kts 276°
2026-05-04 08:37 53.66877 -5.10501 26817 ft 486 kts 276°
2026-05-04 08:37 53.67050 -5.16161 27118 ft 488 kts 276°
2026-05-04 08:38 53.67223 -5.21981 27439 ft 490 kts 277°
2026-05-04 08:38 53.67390 -5.27741 27726 ft 492 kts 277°
2026-05-04 08:38 53.67549 -5.33441 28013 ft 494 kts 277°
2026-05-04 08:40 53.72288 -5.72549 30509 ft 484 kts 293°
2026-05-04 08:40 53.73331 -5.77936 30788 ft 485 kts 292°
2026-05-04 08:40 53.74369 -5.83339 31034 ft 487 kts 292°
2026-05-04 08:41 53.75409 -5.88779 31269 ft 488 kts 292°
2026-05-04 08:41 53.76444 -5.94241 31500 ft 490 kts 292°
2026-05-04 08:41 53.77478 -5.99709 31709 ft 491 kts 292°
2026-05-04 08:41 53.78510 -6.05201 31928 ft 492 kts 292°
2026-05-04 08:42 53.79542 -6.10706 32070 ft 494 kts 292°
2026-05-04 08:42 53.81609 -6.21789 32073 ft 494 kts 292°
2026-05-04 08:43 53.83660 -6.32852 32075 ft 493 kts 292°
2026-05-04 08:43 53.85701 -6.43940 32072 ft 493 kts 292°
2026-05-04 08:44 53.87723 -6.54980 32072 ft 493 kts 292°
2026-05-04 08:46 53.95723 -6.99315 32065 ft 493 kts 291°
2026-05-04 08:46 53.97696 -7.10416 32069 ft 493 kts 291°
2026-05-04 08:47 53.99663 -7.21561 32071 ft 492 kts 291°
2026-05-04 08:47 54.01610 -7.32656 32071 ft 492 kts 291°
2026-05-04 08:48 54.03545 -7.43746 32074 ft 492 kts 291°
2026-05-04 08:48 54.05465 -7.54821 32074 ft 491 kts 291°
2026-05-04 08:49 54.07389 -7.65984 32074 ft 489 kts 290°
2026-05-04 08:50 54.13052 -7.99287 33094 ft 485 kts 290°
2026-05-04 08:50 54.13979 -8.04796 33363 ft 485 kts 290°
2026-05-04 08:51 54.14905 -8.10316 33573 ft 485 kts 290°
2026-05-04 08:51 54.15823 -8.15802 33765 ft 486 kts 290°
2026-05-04 08:51 54.16744 -8.21331 34004 ft 485 kts 290°
2026-05-04 08:51 54.17672 -8.26918 34082 ft 485 kts 290°
2026-05-04 08:52 54.19492 -8.37929 34094 ft 484 kts 290°
2026-05-04 08:52 54.21307 -8.48972 34101 ft 484 kts 289°
2026-05-04 08:54 54.28478 -8.93363 34105 ft 482 kts 289°
2026-05-04 08:55 54.30225 -9.04350 34104 ft 481 kts 288°
2026-05-04 08:55 54.31980 -9.15457 34105 ft 481 kts 288°
2026-05-04 09:01 54.52649 -10.29097 34114 ft 469 kts 303°
2026-05-04 09:01 54.55959 -10.38693 34114 ft 469 kts 303°
2026-05-04 09:02 54.59277 -10.48348 34113 ft 468 kts 303°
2026-05-04 09:02 54.62599 -10.58067 34121 ft 470 kts 303°
2026-05-04 09:03 54.66190 -10.67463 34127 ft 470 kts 309°
2026-05-04 09:03 54.70338 -10.76077 34133 ft 470 kts 308°
2026-05-04 09:04 54.73909 -10.85583 34132 ft 471 kts 302°
2026-05-04 09:04 54.77206 -10.95416 34132 ft 471 kts 301°
2026-05-04 09:05 54.80462 -11.05206 34127 ft 470 kts 301°
2026-05-04 09:05 54.83709 -11.14979 34123 ft 470 kts 301°
2026-05-04 09:06 54.86969 -11.24817 34131 ft 470 kts 301°
2026-05-04 09:08 54.99903 -11.64220 34131 ft 470 kts 301°
2026-05-04 09:08 55.03107 -11.74077 34131 ft 470 kts 300°
2026-05-04 09:09 55.06303 -11.83954 34129 ft 470 kts 300°
2026-05-04 09:09 55.09506 -11.93887 34130 ft 469 kts 300°
2026-05-04 09:10 55.12688 -12.03803 34130 ft 469 kts 300°
2026-05-04 09:10 55.15855 -12.13708 34139 ft 468 kts 300°
2026-05-04 09:11 55.19043 -12.23719 34143 ft 467 kts 300°
2026-05-04 09:11 55.22165 -12.33567 34138 ft 467 kts 300°
2026-05-04 09:12 55.25323 -12.43574 34137 ft 467 kts 300°
2026-05-04 09:14 55.37770 -12.83405 34136 ft 465 kts 298°
2026-05-04 09:14 55.40838 -12.93328 34133 ft 464 kts 298°
2026-05-04 09:15 55.43901 -13.03277 34132 ft 464 kts 298°
2026-05-04 09:15 55.46959 -13.13247 34130 ft 463 kts 298°
2026-05-04 09:17 55.60589 -13.58216 34133 ft 461 kts 298°
2026-05-04 09:18 55.63565 -13.68147 34127 ft 460 kts 297°
2026-05-04 09:18 55.66539 -13.78121 34127 ft 460 kts 297°
2026-05-04 09:19 55.69502 -13.88091 34121 ft 459 kts 297°
2026-05-04 09:19 55.72470 -13.98129 34124 ft 459 kts 297°
2026-05-04 09:20 55.75426 -14.08169 34125 ft 459 kts 297°
2026-05-04 09:20 55.78345 -14.18124 34127 ft 458 kts 297°
2026-05-04 09:21 55.81257 -14.28090 34128 ft 458 kts 296°
2026-05-04 09:21 55.84193 -14.38191 34132 ft 457 kts 296°
2026-05-04 09:22 55.87079 -14.48157 34131 ft 457 kts 296°
2026-05-04 09:22 55.89987 -14.58244 34131 ft 457 kts 296°
2026-05-04 09:23 55.92887 -14.68354 34135 ft 456 kts 295°
2026-05-04 09:23 55.95758 -14.78405 34136 ft 456 kts 295°
2026-05-04 09:25 56.06185 -15.19452 34138 ft 455 kts 290°
2026-05-04 09:26 56.08504 -15.29865 34136 ft 455 kts 290°
2026-05-04 09:26 56.10835 -15.40378 34137 ft 454 kts 290°
2026-05-04 09:27 56.13142 -15.50816 34136 ft 454 kts 290°
2026-05-04 09:27 56.15453 -15.61330 34137 ft 455 kts 290°
2026-05-04 09:28 56.17746 -15.71818 34138 ft 454 kts 290°
2026-05-04 09:28 56.20049 -15.82407 34136 ft 455 kts 290°
2026-05-04 09:29 56.22341 -15.92987 34136 ft 455 kts 290°
2026-05-04 09:29 56.24617 -16.03541 34135 ft 455 kts 290°
2026-05-04 09:30 56.26877 -16.14082 34134 ft 455 kts 290°
2026-05-04 09:30 56.29146 -16.24726 34139 ft 455 kts 290°
2026-05-04 09:31 56.31392 -16.35322 34141 ft 455 kts 290°
2026-05-04 09:31 56.33634 -16.45951 34142 ft 455 kts 290°
2026-05-04 09:32 56.35870 -16.56605 34146 ft 455 kts 290°
2026-05-04 09:34 56.44726 -16.99383 34153 ft 457 kts 289°
2026-05-04 09:34 56.46923 -17.10139 34152 ft 457 kts 289°
2026-05-04 09:35 56.49115 -17.20924 34153 ft 456 kts 289°
2026-05-04 09:35 56.51287 -17.31665 34153 ft 457 kts 289°
2026-05-04 09:37 56.59897 -17.74862 34153 ft 456 kts 289°
2026-05-04 09:38 56.62026 -17.85686 34150 ft 456 kts 288°
2026-05-04 09:38 56.64131 -17.96452 34150 ft 457 kts 289°
2026-05-04 09:39 56.66252 -18.07357 34148 ft 458 kts 288°
2026-05-04 09:39 56.68362 -18.18263 34149 ft 458 kts 288°
2026-05-04 09:40 56.70470 -18.29229 34152 ft 458 kts 289°
2026-05-04 09:40 56.72555 -18.40138 34153 ft 458 kts 288°
2026-05-04 09:42 56.80792 -18.83831 34163 ft 458 kts 288°
2026-05-04 09:43 56.82836 -18.94834 34167 ft 457 kts 288°
2026-05-04 09:43 56.84854 -19.05757 34167 ft 457 kts 288°
2026-05-04 09:44 56.86875 -19.16767 34172 ft 457 kts 288°
2026-05-04 09:46 56.94855 -19.60889 34177 ft 459 kts 288°
2026-05-04 09:46 56.96831 -19.71974 34182 ft 459 kts 287°
2026-05-04 09:47 56.98784 -19.83010 34180 ft 459 kts 287°
2026-05-04 09:49 57.02555 -20.23165 34185 ft 457 kts 274°
2026-05-04 09:49 57.02771 -20.28924 34180 ft 458 kts 274°
2026-05-04 09:51 57.04232 -20.69715 34189 ft 459 kts 274°
2026-05-04 09:51 57.04625 -20.81339 34191 ft 459 kts 274°
2026-05-04 09:52 57.05010 -20.93040 34195 ft 460 kts 274°
2026-05-04 09:52 57.05383 -21.04689 34195 ft 461 kts 274°
2026-05-04 09:53 57.05748 -21.16464 34201 ft 461 kts 274°
2026-05-04 09:53 57.06101 -21.28154 34202 ft 461 kts 274°
2026-05-04 09:54 57.06443 -21.39870 34202 ft 461 kts 274°
2026-05-04 09:54 57.06775 -21.51614 34203 ft 460 kts 274°
2026-05-04 09:55 57.07093 -21.63287 34204 ft 460 kts 274°
2026-05-04 09:55 57.07403 -21.75061 34200 ft 461 kts 273°
2026-05-04 09:56 57.07701 -21.86756 34206 ft 461 kts 273°
2026-05-04 09:56 57.07990 -21.98576 34201 ft 461 kts 273°
2026-05-04 09:57 57.08266 -22.10282 34207 ft 461 kts 273°
2026-05-04 09:57 57.08532 -22.21998 34207 ft 461 kts 273°
2026-05-04 09:58 57.08787 -22.33762 34209 ft 461 kts 273°
2026-05-04 09:58 57.09029 -22.45429 34207 ft 461 kts 273°
2026-05-04 10:00 57.09893 -22.92353 34222 ft 459 kts 272°
2026-05-04 10:04 57.10980 -23.74336 34239 ft 459 kts 271°
2026-05-04 10:04 57.11092 -23.86102 34242 ft 459 kts 271°
2026-05-04 10:05 57.11192 -23.97793 34245 ft 459 kts 271°
2026-05-04 10:05 57.11281 -24.09517 34242 ft 459 kts 272°
2026-05-04 10:06 57.11360 -24.21201 34233 ft 460 kts 271°
2026-05-04 10:06 57.11430 -24.32960 34236 ft 460 kts 271°
2026-05-04 10:08 57.11581 -24.74041 34241 ft 461 kts 270°
2026-05-04 10:08 57.11600 -24.85766 34238 ft 462 kts 270°
2026-05-04 10:09 57.11608 -24.97534 34237 ft 462 kts 270°
2026-05-04 10:09 57.11604 -25.09329 34238 ft 462 kts 270°
2026-05-04 10:10 57.11589 -25.21138 34239 ft 462 kts 270°
2026-05-04 10:10 57.11563 -25.32918 34245 ft 463 kts 270°
2026-05-04 10:11 57.11527 -25.44737 34245 ft 462 kts 270°
2026-05-04 10:11 57.11480 -25.56546 34239 ft 463 kts 270°
2026-05-04 10:12 57.11421 -25.68336 34244 ft 464 kts 269°
2026-05-04 10:12 57.11350 -25.80243 34246 ft 464 kts 269°
2026-05-04 10:13 57.11268 -25.92124 34237 ft 464 kts 269°
2026-05-04 10:13 57.11176 -26.03957 34237 ft 465 kts 269°
2026-05-04 10:14 57.11072 -26.15822 34242 ft 465 kts 269°
2026-05-04 10:16 57.10543 -26.63449 34255 ft 468 kts 269°
2026-05-04 10:16 57.10382 -26.75339 34261 ft 469 kts 268°
2026-05-04 10:17 57.10209 -26.87286 34259 ft 469 kts 268°
2026-05-04 10:19 57.09403 -27.35185 34257 ft 471 kts 268°
2026-05-04 10:19 57.09172 -27.47198 34253 ft 471 kts 268°
2026-05-04 10:20 57.08931 -27.59159 34258 ft 471 kts 268°
2026-05-04 10:20 57.08675 -27.71261 34258 ft 472 kts 267°
2026-05-04 10:21 57.08409 -27.83230 34255 ft 473 kts 267°
2026-05-04 10:21 57.08131 -27.95276 34255 ft 473 kts 267°
2026-05-04 10:22 57.07696 -28.13321 34259 ft 473 kts 267°
2026-05-04 10:23 57.07389 -28.25393 34261 ft 474 kts 267°
2026-05-04 10:25 57.06042 -28.73669 34262 ft 474 kts 266°
2026-05-04 10:25 57.05674 -28.85775 34261 ft 475 kts 266°
2026-05-04 10:26 57.05299 -28.97787 34263 ft 475 kts 266°
2026-05-04 10:26 57.04910 -29.09878 34259 ft 476 kts 266°
2026-05-04 10:27 57.04508 -29.22006 34264 ft 477 kts 266°
2026-05-04 10:27 57.04094 -29.34135 34257 ft 476 kts 266°
2026-05-04 10:28 57.03670 -29.46153 34270 ft 476 kts 266°